Today
| Time | Wind Dr | Wind Spd mph |
Wind Gust mph |
Hum In % |
Humid % |
TempI F |
Temp F |
Raw Bar in |
Tot Rain in |
UV | Solar W/sqm |
DailyRain in |
HourRain in |
24HrRain in |
RainRate in |
|---|---|---|---|---|---|---|---|---|---|---|---|---|---|---|---|
| 05/08/26 12:01:26 AM | 35 | 0.0 | 0.0 | 55 | 76 | 71.9 | 62.0 | 30.002 | 7.26 | 0.0 | 0 | 0.00 | 0.00 | 0.00 | 0.00 |
| 05/08/26 12:02:18 AM | 36 | 0.0 | 0.0 | 55 | 76 | 72.0 | 62.0 | 30.001 | 7.26 | 0.0 | 0 | 0.00 | 0.00 | 0.00 | 0.00 |
| 05/08/26 12:03:30 AM | 35 | 0.0 | 0.0 | 55 | 76 | 71.9 | 62.0 | 30.002 | 7.26 | 0.0 | 0 | 0.00 | 0.00 | 0.00 | 0.00 |
| 05/08/26 12:04:18 AM | 32 | 0.0 | 0.0 | 55 | 76 | 72.0 | 62.0 | 30.002 | 7.26 | 0.0 | 0 | 0.00 | 0.00 | 0.00 | 0.00 |
| 05/08/26 12:05:31 AM | 36 | 0.0 | 0.0 | 55 | 76 | 72.0 | 61.9 | 30.002 | 7.26 | 0.0 | 0 | 0.00 | 0.00 | 0.00 | 0.00 |
| 05/08/26 12:06:22 AM | 34 | 0.0 | 0.0 | 55 | 76 | 72.0 | 61.9 | 30.001 | 7.26 | 0.0 | 0 | 0.00 | 0.00 | 0.00 | 0.00 |
| 05/08/26 12:07:32 AM | 34 | 0.0 | 0.0 | 55 | 76 | 72.0 | 61.9 | 30.003 | 7.26 | 0.0 | 0 | 0.00 | 0.00 | 0.00 | 0.00 |
| 05/08/26 12:08:23 AM | 35 | 0.0 | 0.0 | 55 | 76 | 71.9 | 61.9 | 30.002 | 7.26 | 0.0 | 0 | 0.00 | 0.00 | 0.00 | 0.00 |
| 05/08/26 12:09:33 AM | 35 | 0.0 | 0.0 | 55 | 77 | 71.9 | 61.8 | 30.001 | 7.26 | 0.0 | 0 | 0.00 | 0.00 | 0.00 | 0.00 |
| 05/08/26 12:10:24 AM | 38 | 0.0 | 0.0 | 55 | 77 | 72.0 | 61.8 | 30.001 | 7.26 | 0.0 | 0 | 0.00 | 0.00 | 0.00 | 0.00 |
| 05/08/26 12:11:34 AM | 38 | 0.0 | 0.0 | 55 | 77 | 72.0 | 61.8 | 30.001 | 7.26 | 0.0 | 0 | 0.00 | 0.00 | 0.00 | 0.00 |
| 05/08/26 12:12:26 AM | 36 | 0.0 | 0.0 | 55 | 77 | 72.0 | 61.8 | 30.002 | 7.26 | 0.0 | 0 | 0.00 | 0.00 | 0.00 | 0.00 |
| 05/08/26 12:13:18 AM | 35 | 0.0 | 0.0 | 55 | 77 | 72.0 | 61.8 | 30.003 | 7.26 | 0.0 | 0 | 0.00 | 0.00 | 0.00 | 0.00 |
| 05/08/26 12:14:28 AM | 32 | 0.0 | 0.0 | 55 | 77 | 72.0 | 61.8 | 30.002 | 7.26 | 0.0 | 0 | 0.00 | 0.00 | 0.00 | 0.00 |
| 05/08/26 12:15:20 AM | 31 | 0.0 | 0.0 | 55 | 77 | 72.0 | 61.7 | 30.004 | 7.26 | 0.0 | 0 | 0.00 | 0.00 | 0.00 | 0.00 |
| 05/08/26 12:16:33 AM | 31 | 0.0 | 0.0 | 55 | 77 | 72.0 | 61.7 | 30.002 | 7.26 | 0.0 | 0 | 0.00 | 0.00 | 0.00 | 0.00 |
| 05/08/26 12:17:21 AM | 35 | 0.0 | 0.0 | 55 | 77 | 72.0 | 61.8 | 30.001 | 7.26 | 0.0 | 0 | 0.00 | 0.00 | 0.00 | 0.00 |
| 05/08/26 12:18:34 AM | 36 | 0.0 | 0.0 | 55 | 77 | 72.0 | 61.8 | 30.001 | 7.26 | 0.0 | 0 | 0.00 | 0.00 | 0.00 | 0.00 |
| 05/08/26 12:19:26 AM | 35 | 0.0 | 0.0 | 55 | 77 | 72.0 | 61.8 | 30.004 | 7.26 | 0.0 | 0 | 0.00 | 0.00 | 0.00 | 0.00 |
| 05/08/26 12:20:36 AM | 38 | 0.0 | 0.0 | 55 | 77 | 71.9 | 61.8 | 30.001 | 7.26 | 0.0 | 0 | 0.00 | 0.00 | 0.00 | 0.00 |
| 05/08/26 12:21:28 AM | 38 | 0.0 | 0.0 | 55 | 77 | 72.0 | 61.8 | 30.000 | 7.26 | 0.0 | 0 | 0.00 | 0.00 | 0.00 | 0.00 |
| 05/08/26 12:22:19 AM | 38 | 0.0 | 0.0 | 55 | 77 | 72.0 | 61.8 | 30.001 | 7.26 | 0.0 | 0 | 0.00 | 0.00 | 0.00 | 0.00 |
| 05/08/26 12:23:29 AM | 38 | 0.0 | 0.0 | 55 | 77 | 71.9 | 61.8 | 30.002 | 7.26 | 0.0 | 0 | 0.00 | 0.00 | 0.00 | 0.00 |
| 05/08/26 12:24:24 AM | 38 | 0.0 | 0.0 | 55 | 77 | 72.0 | 61.8 | 30.003 | 7.26 | 0.0 | 0 | 0.00 | 0.00 | 0.00 | 0.00 |
| 05/08/26 12:29:41 AM | 38 | 0.0 | 0.0 | 55 | 77 | 72.4 | 61.8 | 30.003 | 7.26 | 0.0 | 0 | 0.00 | 0.00 | 0.00 | 0.00 |
| 05/08/26 12:30:54 AM | 38 | 0.0 | 0.0 | 55 | 77 | 72.5 | 61.6 | 30.003 | 7.26 | 0.0 | 0 | 0.00 | 0.00 | 0.00 | 0.00 |
| 05/08/26 12:31:25 AM | 38 | 0.0 | 0.0 | 55 | 77 | 72.4 | 61.6 | 30.001 | 7.26 | 0.0 | 0 | 0.00 | 0.00 | 0.00 | 0.00 |
| 05/08/26 12:32:17 AM | 38 | 0.0 | 0.0 | 55 | 77 | 72.3 | 61.6 | 30.002 | 7.26 | 0.0 | 0 | 0.00 | 0.00 | 0.00 | 0.00 |
| 05/08/26 12:33:30 AM | 38 | 0.0 | 0.0 | 55 | 77 | 72.2 | 61.6 | 30.003 | 7.26 | 0.0 | 0 | 0.00 | 0.00 | 0.00 | 0.00 |
| 05/08/26 12:34:19 AM | 32 | 0.0 | 0.0 | 55 | 77 | 72.2 | 61.6 | 30.000 | 7.26 | 0.0 | 0 | 0.00 | 0.00 | 0.00 | 0.00 |
| 05/08/26 12:35:28 AM | 38 | 0.0 | 0.0 | 55 | 77 | 72.1 | 61.5 | 30.000 | 7.26 | 0.0 | 0 | 0.00 | 0.00 | 0.00 | 0.00 |
| 05/08/26 12:36:23 AM | 38 | 0.0 | 0.0 | 55 | 77 | 72.2 | 61.5 | 30.002 | 7.26 | 0.0 | 0 | 0.00 | 0.00 | 0.00 | 0.00 |
| 05/08/26 12:37:36 AM | 36 | 0.0 | 0.0 | 55 | 77 | 72.1 | 61.4 | 30.003 | 7.26 | 0.0 | 0 | 0.00 | 0.00 | 0.00 | 0.00 |
| 05/08/26 12:38:28 AM | 38 | 0.0 | 0.0 | 55 | 77 | 72.1 | 61.4 | 30.000 | 7.26 | 0.0 | 0 | 0.00 | 0.00 | 0.00 | 0.00 |
| 05/08/26 12:39:35 AM | 39 | 0.0 | 0.0 | 55 | 77 | 72.1 | 61.4 | 30.001 | 7.26 | 0.0 | 0 | 0.00 | 0.00 | 0.00 | 0.00 |
| 05/08/26 12:40:27 AM | 38 | 0.0 | 0.0 | 55 | 77 | 72.1 | 61.4 | 29.999 | 7.26 | 0.0 | 0 | 0.00 | 0.00 | 0.00 | 0.00 |
| 05/08/26 12:41:19 AM | 36 | 0.0 | 0.0 | 55 | 77 | 72.0 | 61.3 | 30.000 | 7.26 | 0.0 | 0 | 0.00 | 0.00 | 0.00 | 0.00 |
| 05/08/26 12:42:29 AM | 38 | 0.0 | 0.0 | 55 | 77 | 72.1 | 61.3 | 30.000 | 7.26 | 0.0 | 0 | 0.00 | 0.00 | 0.00 | 0.00 |
| 05/08/26 12:43:20 AM | 35 | 0.0 | 0.0 | 55 | 77 | 72.0 | 61.3 | 30.002 | 7.26 | 0.0 | 0 | 0.00 | 0.00 | 0.00 | 0.00 |
| 05/08/26 12:44:30 AM | 35 | 0.0 | 0.0 | 55 | 77 | 72.0 | 61.3 | 29.999 | 7.26 | 0.0 | 0 | 0.00 | 0.00 | 0.00 | 0.00 |
| 05/08/26 12:45:43 AM | 36 | 0.0 | 0.0 | 55 | 77 | 72.0 | 61.2 | 29.998 | 7.26 | 0.0 | 0 | 0.00 | 0.00 | 0.00 | 0.00 |
| 05/08/26 12:46:35 AM | 36 | 0.0 | 0.0 | 55 | 77 | 72.0 | 61.2 | 30.000 | 7.26 | 0.0 | 0 | 0.00 | 0.00 | 0.00 | 0.00 |
| 05/08/26 12:47:27 AM | 38 | 0.0 | 0.0 | 55 | 77 | 72.0 | 61.1 | 29.999 | 7.26 | 0.0 | 0 | 0.00 | 0.00 | 0.00 | 0.00 |
| 05/08/26 12:48:19 AM | 35 | 0.0 | 0.0 | 55 | 77 | 72.0 | 61.1 | 30.000 | 7.26 | 0.0 | 0 | 0.00 | 0.00 | 0.00 | 0.00 |
| 05/08/26 12:49:32 AM | 32 | 0.0 | 0.0 | 55 | 77 | 72.0 | 61.1 | 30.000 | 7.26 | 0.0 | 0 | 0.00 | 0.00 | 0.00 | 0.00 |
| 05/08/26 12:50:21 AM | 32 | 0.0 | 0.0 | 55 | 77 | 72.0 | 61.1 | 30.000 | 7.26 | 0.0 | 0 | 0.00 | 0.00 | 0.00 | 0.00 |
| 05/08/26 12:51:31 AM | 38 | 0.0 | 0.0 | 55 | 78 | 71.9 | 61.0 | 29.999 | 7.26 | 0.0 | 0 | 0.00 | 0.00 | 0.00 | 0.00 |
| 05/08/26 12:52:22 AM | 31 | 0.0 | 0.0 | 55 | 78 | 72.0 | 61.0 | 30.001 | 7.26 | 0.0 | 0 | 0.00 | 0.00 | 0.00 | 0.00 |
| 05/08/26 12:53:35 AM | 31 | 0.0 | 0.0 | 55 | 78 | 71.9 | 61.0 | 29.999 | 7.26 | 0.0 | 0 | 0.00 | 0.00 | 0.00 | 0.00 |
| 05/08/26 12:54:27 AM | 36 | 0.0 | 0.0 | 55 | 78 | 71.9 | 60.9 | 29.998 | 7.26 | 0.0 | 0 | 0.00 | 0.00 | 0.00 | 0.00 |
| 05/08/26 12:55:19 AM | 36 | 0.0 | 0.0 | 55 | 78 | 71.9 | 60.9 | 29.998 | 7.26 | 0.0 | 0 | 0.00 | 0.00 | 0.00 | 0.00 |
| 05/08/26 12:56:26 AM | 35 | 0.0 | 0.0 | 55 | 78 | 71.9 | 60.9 | 29.999 | 7.26 | 0.0 | 0 | 0.00 | 0.00 | 0.00 | 0.00 |
| 05/08/26 12:57:18 AM | 36 | 0.0 | 0.0 | 55 | 78 | 71.9 | 60.8 | 29.998 | 7.26 | 0.0 | 0 | 0.00 | 0.00 | 0.00 | 0.00 |
| 05/08/26 12:58:31 AM | 36 | 0.0 | 0.0 | 55 | 78 | 71.9 | 60.8 | 30.000 | 7.26 | 0.0 | 0 | 0.00 | 0.00 | 0.00 | 0.00 |
| 05/08/26 12:59:23 AM | 38 | 0.0 | 0.0 | 55 | 78 | 71.9 | 60.8 | 29.997 | 7.26 | 0.0 | 0 | 0.00 | 0.00 | 0.00 | 0.00 |
| 05/08/26 1:00:36 AM | 38 | 0.0 | 0.0 | 55 | 78 | 71.9 | 60.7 | 29.998 | 7.26 | 0.0 | 0 | 0.00 | 0.00 | 0.00 | 0.00 |
| 05/08/26 1:01:24 AM | 35 | 0.0 | 0.0 | 55 | 78 | 71.9 | 60.7 | 29.998 | 7.26 | 0.0 | 0 | 0.00 | 0.00 | 0.00 | 0.00 |
| 05/08/26 1:02:37 AM | 35 | 0.0 | 0.0 | 55 | 78 | 71.9 | 60.7 | 29.996 | 7.26 | 0.0 | 0 | 0.00 | 0.00 | 0.00 | 0.00 |
| 05/08/26 1:03:26 AM | 38 | 0.0 | 0.0 | 55 | 78 | 71.9 | 60.7 | 29.995 | 7.26 | 0.0 | 0 | 0.00 | 0.00 | 0.00 | 0.00 |
| 05/08/26 1:04:21 AM | 31 | 0.0 | 0.0 | 55 | 78 | 71.8 | 60.6 | 29.996 | 7.26 | 0.0 | 0 | 0.00 | 0.00 | 0.00 | 0.00 |
| 05/08/26 1:05:31 AM | 31 | 0.0 | 0.0 | 55 | 78 | 71.9 | 60.6 | 29.996 | 7.26 | 0.0 | 0 | 0.00 | 0.00 | 0.00 | 0.00 |
| 05/08/26 1:06:20 AM | 36 | 0.0 | 0.0 | 55 | 78 | 71.8 | 60.6 | 29.996 | 7.26 | 0.0 | 0 | 0.00 | 0.00 | 0.00 | 0.00 |
| 05/08/26 1:07:30 AM | 35 | 0.0 | 0.0 | 55 | 78 | 71.8 | 60.5 | 29.995 | 7.26 | 0.0 | 0 | 0.00 | 0.00 | 0.00 | 0.00 |
| 05/08/26 1:08:21 AM | 35 | 0.0 | 0.0 | 55 | 79 | 71.8 | 60.5 | 29.994 | 7.26 | 0.0 | 0 | 0.00 | 0.00 | 0.00 | 0.00 |
| 05/08/26 1:09:34 AM | 36 | 0.0 | 0.0 | 55 | 79 | 71.9 | 60.5 | 29.993 | 7.26 | 0.0 | 0 | 0.00 | 0.00 | 0.00 | 0.00 |
| 05/08/26 1:10:26 AM | 36 | 0.0 | 0.0 | 55 | 79 | 71.9 | 60.5 | 29.996 | 7.26 | 0.0 | 0 | 0.00 | 0.00 | 0.00 | 0.00 |
| 05/08/26 1:11:18 AM | 34 | 0.0 | 0.0 | 55 | 79 | 71.9 | 60.4 | 29.995 | 7.26 | 0.0 | 0 | 0.00 | 0.00 | 0.00 | 0.00 |
| 05/08/26 1:12:28 AM | 38 | 0.0 | 0.0 | 55 | 79 | 71.9 | 60.4 | 29.995 | 7.26 | 0.0 | 0 | 0.00 | 0.00 | 0.00 | 0.00 |
| 05/08/26 1:13:20 AM | 36 | 0.0 | 0.0 | 55 | 79 | 71.9 | 60.4 | 29.994 | 7.26 | 0.0 | 0 | 0.00 | 0.00 | 0.00 | 0.00 |
| 05/08/26 1:14:30 AM | 34 | 0.0 | 0.0 | 55 | 79 | 71.9 | 60.3 | 29.996 | 7.26 | 0.0 | 0 | 0.00 | 0.00 | 0.00 | 0.00 |
| 05/08/26 1:15:21 AM | 36 | 0.0 | 0.0 | 55 | 79 | 71.9 | 60.3 | 29.993 | 7.26 | 0.0 | 0 | 0.00 | 0.00 | 0.00 | 0.00 |
| 05/08/26 1:16:34 AM | 38 | 0.0 | 0.0 | 55 | 79 | 71.8 | 60.3 | 29.993 | 7.26 | 0.0 | 0 | 0.00 | 0.00 | 0.00 | 0.00 |
| 05/08/26 1:17:20 AM | 38 | 0.0 | 0.0 | 55 | 79 | 71.9 | 60.2 | 29.996 | 7.26 | 0.0 | 0 | 0.00 | 0.00 | 0.00 | 0.00 |
| 05/08/26 1:18:33 AM | 34 | 0.0 | 0.0 | 55 | 79 | 71.8 | 60.2 | 29.995 | 7.26 | 0.0 | 0 | 0.00 | 0.00 | 0.00 | 0.00 |
| 05/08/26 1:19:25 AM | 35 | 0.0 | 0.0 | 55 | 79 | 71.8 | 60.2 | 29.993 | 7.26 | 0.0 | 0 | 0.00 | 0.00 | 0.00 | 0.00 |
| 05/08/26 1:20:17 AM | 34 | 0.0 | 0.0 | 55 | 79 | 71.8 | 60.2 | 29.995 | 7.26 | 0.0 | 0 | 0.00 | 0.00 | 0.00 | 0.00 |
| 05/08/26 1:21:30 AM | 38 | 0.0 | 0.0 | 55 | 79 | 71.8 | 60.1 | 29.995 | 7.26 | 0.0 | 0 | 0.00 | 0.00 | 0.00 | 0.00 |
| 05/08/26 1:22:19 AM | 31 | 0.0 | 0.0 | 55 | 79 | 71.8 | 60.1 | 29.995 | 7.26 | 0.0 | 0 | 0.00 | 0.00 | 0.00 | 0.00 |
| 05/08/26 1:23:29 AM | 38 | 0.0 | 0.0 | 55 | 79 | 71.9 | 60.1 | 29.996 | 7.26 | 0.0 | 0 | 0.00 | 0.00 | 0.00 | 0.00 |
| 05/08/26 1:24:17 AM | 36 | 0.0 | 0.0 | 55 | 79 | 71.8 | 60.1 | 29.995 | 7.26 | 0.0 | 0 | 0.00 | 0.00 | 0.00 | 0.00 |
| 05/08/26 1:25:30 AM | 36 | 0.0 | 0.0 | 55 | 79 | 71.8 | 60.1 | 29.993 | 7.26 | 0.0 | 0 | 0.00 | 0.00 | 0.00 | 0.00 |
| 05/08/26 1:26:19 AM | 35 | 0.0 | 0.0 | 55 | 79 | 71.8 | 60.0 | 29.992 | 7.26 | 0.0 | 0 | 0.00 | 0.00 | 0.00 | 0.00 |
| 05/08/26 1:27:29 AM | 38 | 0.0 | 0.0 | 55 | 79 | 71.8 | 60.0 | 29.994 | 7.26 | 0.0 | 0 | 0.00 | 0.00 | 0.00 | 0.00 |
| 05/08/26 1:28:21 AM | 36 | 0.0 | 0.0 | 55 | 80 | 71.8 | 60.0 | 29.994 | 7.26 | 0.0 | 0 | 0.00 | 0.00 | 0.00 | 0.00 |
| 05/08/26 1:29:34 AM | 34 | 0.0 | 0.0 | 55 | 80 | 71.8 | 60.0 | 29.991 | 7.26 | 0.0 | 0 | 0.00 | 0.00 | 0.00 | 0.00 |
| 05/08/26 1:30:26 AM | 34 | 0.0 | 0.0 | 55 | 80 | 71.8 | 59.9 | 29.991 | 7.26 | 0.0 | 0 | 0.00 | 0.00 | 0.00 | 0.00 |
| 05/08/26 1:31:20 AM | 38 | 0.0 | 0.0 | 55 | 80 | 71.8 | 59.9 | 29.990 | 7.26 | 0.0 | 0 | 0.00 | 0.00 | 0.00 | 0.00 |
| 05/08/26 1:32:30 AM | 38 | 0.0 | 0.0 | 55 | 80 | 71.8 | 59.9 | 29.991 | 7.26 | 0.0 | 0 | 0.00 | 0.00 | 0.00 | 0.00 |
| 05/08/26 1:33:16 AM | 38 | 0.0 | 0.0 | 55 | 80 | 71.7 | 59.9 | 29.995 | 7.26 | 0.0 | 0 | 0.00 | 0.00 | 0.00 | 0.00 |
| 05/08/26 1:34:29 AM | 38 | 0.0 | 0.0 | 55 | 80 | 71.8 | 59.9 | 29.989 | 7.26 | 0.0 | 0 | 0.00 | 0.00 | 0.00 | 0.00 |
| 05/08/26 1:35:21 AM | 38 | 0.0 | 0.0 | 55 | 80 | 71.8 | 59.8 | 29.989 | 7.26 | 0.0 | 0 | 0.00 | 0.00 | 0.00 | 0.00 |
| 05/08/26 1:36:34 AM | 31 | 0.0 | 0.0 | 55 | 80 | 71.7 | 59.8 | 29.991 | 7.26 | 0.0 | 0 | 0.00 | 0.00 | 0.00 | 0.00 |
| 05/08/26 1:37:26 AM | 36 | 0.0 | 0.0 | 55 | 80 | 71.7 | 59.8 | 29.988 | 7.26 | 0.0 | 0 | 0.00 | 0.00 | 0.00 | 0.00 |
| 05/08/26 1:38:33 AM | 35 | 0.0 | 0.0 | 55 | 80 | 71.7 | 59.8 | 29.988 | 7.26 | 0.0 | 0 | 0.00 | 0.00 | 0.00 | 0.00 |
| 05/08/26 1:39:24 AM | 34 | 0.0 | 0.0 | 55 | 80 | 71.7 | 59.7 | 29.988 | 7.26 | 0.0 | 0 | 0.00 | 0.00 | 0.00 | 0.00 |
| 05/08/26 1:40:16 AM | 38 | 0.0 | 0.0 | 55 | 80 | 71.7 | 59.7 | 29.988 | 7.26 | 0.0 | 0 | 0.00 | 0.00 | 0.00 | 0.00 |
| 05/08/26 1:41:29 AM | 35 | 0.0 | 0.0 | 55 | 80 | 71.7 | 59.6 | 29.988 | 7.26 | 0.0 | 0 | 0.00 | 0.00 | 0.00 | 0.00 |
| 05/08/26 1:42:21 AM | 34 | 0.0 | 0.0 | 55 | 80 | 71.7 | 59.6 | 29.989 | 7.26 | 0.0 | 0 | 0.00 | 0.00 | 0.00 | 0.00 |
| 05/08/26 1:43:28 AM | 36 | 0.0 | 0.0 | 55 | 80 | 71.7 | 59.6 | 29.988 | 7.26 | 0.0 | 0 | 0.00 | 0.00 | 0.00 | 0.00 |
| 05/08/26 1:44:20 AM | 38 | 0.0 | 0.0 | 55 | 80 | 71.7 | 59.6 | 29.988 | 7.26 | 0.0 | 0 | 0.00 | 0.00 | 0.00 | 0.00 |
| 05/08/26 1:45:33 AM | 32 | 0.0 | 0.0 | 55 | 80 | 71.7 | 59.5 | 29.988 | 7.26 | 0.0 | 0 | 0.00 | 0.00 | 0.00 | 0.00 |
| 05/08/26 1:46:25 AM | 35 | 0.0 | 0.0 | 55 | 80 | 71.7 | 59.5 | 29.986 | 7.26 | 0.0 | 0 | 0.00 | 0.00 | 0.00 | 0.00 |
| 05/08/26 1:47:17 AM | 38 | 0.0 | 0.0 | 55 | 80 | 71.7 | 59.5 | 29.988 | 7.26 | 0.0 | 0 | 0.00 | 0.00 | 0.00 | 0.00 |
| 05/08/26 1:48:30 AM | 38 | 0.0 | 0.0 | 55 | 80 | 71.7 | 59.5 | 29.989 | 7.26 | 0.0 | 0 | 0.00 | 0.00 | 0.00 | 0.00 |
| 05/08/26 1:49:15 AM | 38 | 0.0 | 0.0 | 55 | 80 | 71.7 | 59.5 | 29.988 | 7.26 | 0.0 | 0 | 0.00 | 0.00 | 0.00 | 0.00 |
| 05/08/26 1:50:28 AM | 35 | 0.0 | 0.0 | 55 | 80 | 71.7 | 59.4 | 29.986 | 7.26 | 0.0 | 0 | 0.00 | 0.00 | 0.00 | 0.00 |
| 05/08/26 1:51:23 AM | 35 | 0.0 | 0.0 | 55 | 80 | 71.7 | 59.4 | 29.985 | 7.26 | 0.0 | 0 | 0.00 | 0.00 | 0.00 | 0.00 |
| 05/08/26 1:52:33 AM | 38 | 0.0 | 0.0 | 55 | 80 | 71.7 | 59.4 | 29.985 | 7.26 | 0.0 | 0 | 0.00 | 0.00 | 0.00 | 0.00 |
| 05/08/26 1:53:25 AM | 35 | 0.0 | 0.0 | 55 | 80 | 71.7 | 59.4 | 29.984 | 7.26 | 0.0 | 0 | 0.00 | 0.00 | 0.00 | 0.00 |
| 05/08/26 1:54:35 AM | 38 | 0.0 | 0.0 | 55 | 80 | 71.7 | 59.3 | 29.984 | 7.26 | 0.0 | 0 | 0.00 | 0.00 | 0.00 | 0.00 |
| 05/08/26 1:55:27 AM | 36 | 0.0 | 0.0 | 55 | 81 | 71.6 | 59.3 | 29.987 | 7.26 | 0.0 | 0 | 0.00 | 0.00 | 0.00 | 0.00 |
| 05/08/26 1:56:19 AM | 35 | 0.0 | 0.0 | 55 | 81 | 71.7 | 59.3 | 29.984 | 7.26 | 0.0 | 0 | 0.00 | 0.00 | 0.00 | 0.00 |
| 05/08/26 1:57:32 AM | 34 | 0.0 | 0.0 | 55 | 81 | 71.6 | 59.3 | 29.984 | 7.26 | 0.0 | 0 | 0.00 | 0.00 | 0.00 | 0.00 |
| 05/08/26 1:58:23 AM | 35 | 0.0 | 0.0 | 55 | 81 | 71.6 | 59.2 | 29.984 | 7.26 | 0.0 | 0 | 0.00 | 0.00 | 0.00 | 0.00 |
| 05/08/26 1:59:15 AM | 38 | 0.0 | 0.0 | 55 | 81 | 71.6 | 59.2 | 29.985 | 7.26 | 0.0 | 0 | 0.00 | 0.00 | 0.00 | 0.00 |
| 05/08/26 2:00:46 AM | 38 | 0.0 | 0.0 | 55 | 81 | 71.6 | 59.2 | 29.986 | 7.26 | 0.0 | 0 | 0.00 | 0.00 | 0.00 | 0.00 |
| 05/08/26 2:01:17 AM | 32 | 0.0 | 2.0 | 55 | 81 | 71.6 | 59.1 | 29.984 | 7.26 | 0.0 | 0 | 0.00 | 0.00 | 0.00 | 0.00 |
| 05/08/26 2:02:30 AM | 36 | 1.0 | 3.0 | 55 | 81 | 71.6 | 59.1 | 29.982 | 7.26 | 0.0 | 0 | 0.00 | 0.00 | 0.00 | 0.00 |
| 05/08/26 2:03:22 AM | 37 | 0.0 | 3.0 | 55 | 81 | 71.6 | 59.1 | 29.983 | 7.26 | 0.0 | 0 | 0.00 | 0.00 | 0.00 | 0.00 |
| 05/08/26 2:04:35 AM | 37 | 0.0 | 3.0 | 55 | 81 | 71.6 | 59.1 | 29.983 | 7.26 | 0.0 | 0 | 0.00 | 0.00 | 0.00 | 0.00 |
| 05/08/26 2:05:21 AM | 36 | 0.0 | 3.0 | 55 | 81 | 71.6 | 59.1 | 29.982 | 7.26 | 0.0 | 0 | 0.00 | 0.00 | 0.00 | 0.00 |
| 05/08/26 2:06:34 AM | 37 | 0.0 | 3.0 | 55 | 81 | 71.6 | 59.1 | 29.986 | 7.26 | 0.0 | 0 | 0.00 | 0.00 | 0.00 | 0.00 |
| 05/08/26 2:07:26 AM | 36 | 0.0 | 3.0 | 55 | 81 | 71.5 | 59.1 | 29.984 | 7.26 | 0.0 | 0 | 0.00 | 0.00 | 0.00 | 0.00 |
| 05/08/26 2:08:17 AM | 38 | 0.0 | 3.0 | 55 | 81 | 71.6 | 59.1 | 29.983 | 7.26 | 0.0 | 0 | 0.00 | 0.00 | 0.00 | 0.00 |
| 05/08/26 2:09:30 AM | 35 | 0.0 | 3.0 | 55 | 82 | 71.6 | 59.1 | 29.983 | 7.26 | 0.0 | 0 | 0.00 | 0.00 | 0.00 | 0.00 |
| 05/08/26 2:10:22 AM | 37 | 0.0 | 3.0 | 55 | 82 | 71.5 | 59.1 | 29.982 | 7.26 | 0.0 | 0 | 0.00 | 0.00 | 0.00 | 0.00 |
| 05/08/26 2:11:29 AM | 38 | 0.0 | 3.0 | 55 | 82 | 71.5 | 59.0 | 29.981 | 7.26 | 0.0 | 0 | 0.00 | 0.00 | 0.00 | 0.00 |
| 05/08/26 2:12:21 AM | 38 | 0.0 | 3.0 | 55 | 82 | 71.5 | 59.0 | 29.981 | 7.26 | 0.0 | 0 | 0.00 | 0.00 | 0.00 | 0.00 |
| 05/08/26 2:13:34 AM | 36 | 0.0 | 3.0 | 55 | 82 | 71.5 | 59.0 | 29.981 | 7.26 | 0.0 | 0 | 0.00 | 0.00 | 0.00 | 0.00 |
| 05/08/26 2:14:29 AM | 36 | 0.0 | 3.0 | 55 | 82 | 71.5 | 59.0 | 29.981 | 7.26 | 0.0 | 0 | 0.00 | 0.00 | 0.00 | 0.00 |
| 05/08/26 2:15:21 AM | 38 | 0.0 | 3.0 | 55 | 82 | 71.5 | 59.0 | 29.981 | 7.26 | 0.0 | 0 | 0.00 | 0.00 | 0.00 | 0.00 |
| 05/08/26 2:16:28 AM | 38 | 0.0 | 3.0 | 55 | 82 | 71.5 | 59.0 | 29.981 | 7.26 | 0.0 | 0 | 0.00 | 0.00 | 0.00 | 0.00 |
| 05/08/26 2:17:20 AM | 36 | 0.0 | 3.0 | 55 | 82 | 71.5 | 59.0 | 29.982 | 7.26 | 0.0 | 0 | 0.00 | 0.00 | 0.00 | 0.00 |
| 05/08/26 2:18:33 AM | 37 | 0.0 | 3.0 | 55 | 82 | 71.5 | 58.9 | 29.980 | 7.26 | 0.0 | 0 | 0.00 | 0.00 | 0.00 | 0.00 |
| 05/08/26 2:19:24 AM | 32 | 0.0 | 3.0 | 55 | 82 | 71.5 | 58.9 | 29.980 | 7.26 | 0.0 | 0 | 0.00 | 0.00 | 0.00 | 0.00 |
| 05/08/26 2:20:16 AM | 34 | 0.0 | 3.0 | 55 | 82 | 71.5 | 58.9 | 29.980 | 7.26 | 0.0 | 0 | 0.00 | 0.00 | 0.00 | 0.00 |
| 05/08/26 2:21:23 AM | 38 | 0.0 | 3.0 | 55 | 82 | 71.5 | 58.9 | 29.982 | 7.26 | 0.0 | 0 | 0.00 | 0.00 | 0.00 | 0.00 |
| 05/08/26 2:22:33 AM | 38 | 0.0 | 3.0 | 55 | 82 | 71.5 | 58.9 | 29.981 | 7.26 | 0.0 | 0 | 0.00 | 0.00 | 0.00 | 0.00 |
| 05/08/26 2:23:25 AM | 35 | 0.0 | 3.0 | 55 | 82 | 71.5 | 58.8 | 29.982 | 7.26 | 0.0 | 0 | 0.00 | 0.00 | 0.00 | 0.00 |
| 05/08/26 2:24:17 AM | 32 | 1.0 | 3.0 | 55 | 82 | 71.5 | 58.8 | 29.980 | 7.26 | 0.0 | 0 | 0.00 | 0.00 | 0.00 | 0.00 |
| 05/08/26 2:25:30 AM | 38 | 0.0 | 3.0 | 55 | 82 | 71.4 | 58.8 | 29.980 | 7.26 | 0.0 | 0 | 0.00 | 0.00 | 0.00 | 0.00 |
| 05/08/26 2:26:22 AM | 34 | 0.0 | 3.0 | 55 | 82 | 71.5 | 58.8 | 29.980 | 7.26 | 0.0 | 0 | 0.00 | 0.00 | 0.00 | 0.00 |
| 05/08/26 2:27:29 AM | 38 | 0.0 | 3.0 | 55 | 82 | 71.5 | 58.8 | 29.979 | 7.26 | 0.0 | 0 | 0.00 | 0.00 | 0.00 | 0.00 |
| 05/08/26 2:28:21 AM | 34 | 0.0 | 3.0 | 55 | 82 | 71.5 | 58.7 | 29.981 | 7.26 | 0.0 | 0 | 0.00 | 0.00 | 0.00 | 0.00 |
| 05/08/26 2:29:34 AM | 38 | 0.0 | 3.0 | 55 | 82 | 71.5 | 58.7 | 29.980 | 7.26 | 0.0 | 0 | 0.00 | 0.00 | 0.00 | 0.00 |
| 05/08/26 2:30:29 AM | 38 | 0.0 | 3.0 | 55 | 82 | 71.5 | 58.7 | 29.981 | 7.26 | 0.0 | 0 | 0.00 | 0.00 | 0.00 | 0.00 |
| 05/08/26 2:31:18 AM | 34 | 0.0 | 3.0 | 55 | 82 | 71.5 | 58.7 | 29.979 | 7.26 | 0.0 | 0 | 0.00 | 0.00 | 0.00 | 0.00 |
| 05/08/26 2:32:28 AM | 36 | 0.0 | 3.0 | 55 | 82 | 71.5 | 58.7 | 29.979 | 7.26 | 0.0 | 0 | 0.00 | 0.00 | 0.00 | 0.00 |
| 05/08/26 2:33:16 AM | 38 | 0.0 | 3.0 | 55 | 82 | 71.5 | 58.7 | 29.980 | 7.26 | 0.0 | 0 | 0.00 | 0.00 | 0.00 | 0.00 |
University Police wind advisory reference
For campus closure information please call the campus Emergency Hotline at (909) 537-5999
© All rights reserved. Unauthorized duplication or distribution is prohibited
Never base important decisions on this or any weather information obtained from the Internet
California State University, San Bernardino
5500 University Parkway, San Bernardino, CA. 92407
Phone: (909) 537-5108, Email: Weather Webmaster
Last Updated: